Regional Weather Roundup
Issued by NWS Upton, NY

Home | Current Version | Previous Version | Text Only | Print | Product List | Glossary On
Versions: 1 2 3 4 5 6 7 8 9 10 11 12 13 14 15 16 17 18 19 20 21 22 23 24 25 26 27 28 29 30 31 32 33 34 35 36 37 38 39 40 41 42 43 44 45 46 47 48 49 50
000
ASUS41 KOKX 280405
RWROKX

REGIONAL WEATHER ROUNDUP
NATIONAL WEATHER SERVICE NEW YORK NY
1200 AM EDT MON JUL 28 2014

NOTE: "FAIR" INDICATES FEW OR NO CLOUDS BELOW 12,000 FEET WITH NO
SIGNIFICANT WEATHER AND/OR OBSTRUCTIONS TO VISIBILITY.

NYZ071-072-176-178-NJZ106-104-280500-
NEW YORK CITY METRO AREA


CITY           SKY/WX    TMP DP  RH WIND       PRES   REMARKS
CENTRAL PARK   LGT RAIN  78  71  79 W5        29.67F
LAGUARDIA APRT CLOUDY    81  70  69 SW8       29.64F
KENNEDY INTL   CLOUDY    77  71  82 S12       29.67F
NEWARK/LIBERTY TSTM      79  73  82 S6        29.64F
BRNX BOT. GARD   N/A     81  72  74 S1        29.66F
TETERBORO      LGT RAIN  81  72  74 CALM      29.63F
$$

NYZ177-179-078>081-280500-
LONG ISLAND NEW YORK

CITY           SKY/WX    TMP DP  RH WIND       PRES   REMARKS
FARMINGDALE    CLOUDY    72  71  97 SE7       29.67F
ISLIP          CLOUDY    75  71  87 S10       29.67F
SHIRLEY        CLOUDY    73  70  90 S9        29.70F
WESTHAMPTON    CLOUDY    72  70  93 S6        29.71F
MONTAUK POINT    N/A     72  70  93 S8        29.71S
$$

NYZ052-065-067-280500-
HUDSON VALLEY

CITY           SKY/WX    TMP DP  RH WIND       PRES   REMARKS
WHITE PLAINS   CLOUDY    75  70  84 CALM      29.67F
NEWBURGH       PTCLDY    75  68  78 CALM      29.67F
MONTGOMERY     CLOUDY    69  66  90 CALM      29.66F
POUGHKEEPSIE   CLOUDY    74  67  78 CALM      29.64F
ALBANY         CLOUDY    70  67  90 CALM      29.66F
$$

NJZ001-105-106-008-010-013-015-019>022-104-280500-
NEW JERSEY

CITY           SKY/WX    TMP DP  RH WIND       PRES   REMARKS
NEWARK/LIBERTY TSTM      79  73  82 S6        29.64F
TETERBORO      LGT RAIN  81  72  74 CALM      29.63F
CALDWELL       LGT RAIN  75  72  90 CALM      29.66F
MORRISTOWN     RAIN      75  72  88 CALM      29.65F
SOMERVILLE     RAIN      74  72  93 CALM      29.64F FOG
LINDEN         LGT RAIN  79  73  80 CALM      29.66F
SUSSEX         LGT RAIN  73  69  87 CALM      29.67F
ANDOVER          N/A     71  70  96 CALM      29.69S
TRENTON        LGT RAIN  71  67  87 MISG      29.68R
MILLVILLE      MOCLDY    76  71  85 VRB7      29.67F
ATLANTIC CITY  MOCLDY    76  70  82 S10       29.67F
WRIGHTSTOWN    LGT RAIN  75  72  88 VRB2      29.66R
TOMS RIVER     CLOUDY    75  72  88 S3        29.68F
BELMAR         CLOUDY    77  70  78 SW5       29.68F
$$

PAZ047>061-062-071-280500-
EASTERN PENNSYLVANIA

CITY           SKY/WX    TMP DP  RH WIND       PRES   REMARKS
PHILADELPHIA   TSTM      74  68  81 N12G18    29.67R
ALLENTOWN      CLOUDY    68  64  87 E12       29.67F
SCRANTON       CLOUDY    69  60  73 CALM      29.64F
$$

CTZ002-004>006-009-010-012-RIZ004-006-007-MAZ004-011-015-280500-
SOUTHERN NEW ENGLAND
 IN CT

CITY           SKY/WX    TMP DP  RH WIND       PRES   REMARKS
BRADLEY INTL   MOCLDY    66  63  90 NE5       29.66F
HARTFORD       PTCLDY    69  66  90 CALM      29.66F
DANBURY        CLOUDY    74  68  81 S5        29.69F
WTRBRY/OXFORD  MOCLDY    72  66  83 S3        29.71F
BRIDGEPORT     CLOUDY    76  71  85 CALM      29.67F
MERIDEN        MOCLDY    71  68  90 CALM      29.68F
NEW HAVEN      MOCLDY    74  70  87 CALM      29.68F
CHESTER        FAIR      72  70  94 SW5       29.70F
GROTON         PTCLDY    69  68  96 S7        29.68F
WILLIMANTIC    PTCLDY    65  63  93 NE3       29.69F

 IN RI

CITY           SKY/WX    TMP DP  RH WIND       PRES   REMARKS
PROVIDENCE     MOCLDY    70  68  93 CALM      29.71S FOG
BLOCK ISLAND   MOCLDY    72  68  88 S12G17    29.71S
WESTERLY       MOCLDY    70  68  93 SE5       29.71R FOG

 IN MA

CITY           SKY/WX    TMP DP  RH WIND       PRES   REMARKS
BOSTON         PTCLDY    70  68  93 CALM      29.68F
WORCESTER      CLEAR     65  62  90 SW6       29.71F
WESTFIELD      MOCLDY    65  63  93 CALM      29.67F
PROVINCETOWN   MOCLDY    72  70  94 S9        29.71S
NANTUCKET      CLOUDY    68  67  96 S5        29.74S FOG
$$

ANZ330-335-338-340-345-350-353-355-280500-
COASTAL MARINE OBSERVATIONS


STATION/POSITION TIME  SKY/WX   TEMP    WIND        PRES    VSBY  WAVE
                                AIR SEA DIR/SP/G                  HT/PER
                 (UTC)          (F)     (DEG/KT/KT) (MB)    (MI)  (FT/S)
NY HARB ENTRANCE NOT AVBL
4S FIRE IS       NOT AVBL
23SW MTP         0400            72 71              1005.2          4/ 5
HUDSON CANYON    0400            75 74  210/ 14/ 16 1006.2          4/ 6
EXECUTION ROCKS  0400            76 72  220/  8/ 10   N/A
WESTERN LI SOUND 0400            77     180/  6/  6   N/A           0
CENTRAL LI SOUND 0300            74 71  200/  8/ 12   N/A           1/ 3
EASTERN LI SOUND 0300            70 67  170/  6/  6   N/A
ROBBINS REEF     0400            80     220/  6/  8   N/A
$$


>>>>>>>>>>>>>>>>>>>>>>>>>>>> KEY <<<<<<<<<<<<<<<<<<<<<<<<<<<
>                                                          <
>     SKY/WX - SKY CONDITION/PRESENT WEATHER               <
>     TMP    - TEMPERATURE IN FAHRENHEIT                   <
>     DP     - DEWPOINT IN FAHRENHEIT                      <
>     RH     - RELATIVE HUMIDITY IN PERCENT                <
>     WIND   - DIRECTION AND SPEED IN MPH                  <
>     PRES   - MEAN SEA LEVEL PRESSURE IN INCHES OF HG     <
>     WCI    - WIND CHILL INDEX                            <
>     VSB    - VISIBILITY IN MILES                         <
>     HX     - HEAT INDEX                                  <
>     TC     - TEMPERATURE IN CELSIUS                      <
>     VRB    - VARIABLE WIND DIRECTION                     <
>                                                          <
>>>>>>>>>>>>>>>>>>>>>>>>>>>> KEY <<<<<<<<<<<<<<<<<<<<<<<<<<<




USA.gov is the U.S. government's official web portal to all federal, state and local government web resources and services.